[[{"header":{"parameterUnit":"m.s-1","parameterCategory":2,"la1":30.2992,"la2":30.254,"lo1":-89.0895,"lo2":-89.0443,"dy":0.0025,"dx":0.0025,"nx":19,"ny":19,"refTime":"2026-04-08T21:00:00:Z","depth":"0","parameterNumber":2,"parameterNumberName":"U-component_of_CURRENTS"},"data":[0,0,0,-0.1135,-0.1135,-0.1133,-0.1133,-0.1064,-0.1063,0,0,0,0,0,0,0,0,0,0,0,-0.1124,-0.1124,-0.1135,-0.1135,-0.1133,-0.1133,-0.1064,-0.1063,0,0,0,0,0,0,0,0,0,0,0,-0.1124,-0.1124,-0.1125,-0.1135,-0.1133,-0.1133,-0.1064,-0.1079,0,0,0,0,0,0,0,0,0,0,-0.1087,-0.1105,-0.1124,-0.1125,-0.1135,-0.1133,-0.1133,-0.108,-0.1078,-0.1051,0,-0.1055,0,-0.1067,-0.1059,-0.1058,0,0,0,-0.112,-0.1107,-0.1099,-0.1125,-0.1136,-0.1133,-0.113,-0.1079,-0.1076,-0.1047,-0.1054,-0.1052,-0.1066,-0.1058,-0.1058,-0.1006,-0.1006,0,0,-0.112,-0.1128,-0.1101,-0.1098,-0.1139,-0.113,-0.113,-0.1078,-0.108,-0.1054,-0.1051,-0.1065,-0.1058,-0.1057,-0.1006,-0.1006,0,0,0,-0.1131,-0.1128,-0.1123,-0.11,-0.111,-0.113,-0.113,-0.1082,-0.1078,-0.105,-0.1064,-0.1057,-0.1056,-0.1007,-0.1006,-0.1079,0,0,0,-0.113,-0.1135,-0.1123,-0.1128,-0.1112,-0.111,-0.1135,-0.1081,-0.1077,-0.1065,-0.1057,-0.1056,-0.1007,-0.1006,-0.1078,-0.1151,0,0,0,-0.1124,-0.1135,-0.1135,-0.1128,-0.1135,-0.1111,-0.1104,-0.1081,-0.1086,-0.1058,-0.1056,-0.1007,-0.1007,-0.1076,-0.1146,-0.1282,0,0,0,-0.1131,-0.1128,-0.1135,-0.1131,-0.1135,-0.1119,-0.1105,-0.1084,-0.1061,-0.1057,-0.1007,-0.1006,-0.1075,-0.1143,-0.1277,-0.1431,-0.1464,0,0,-0.1127,-0.1127,-0.1122,-0.1129,-0.1125,-0.1118,-0.1119,-0.1083,-0.1051,-0.1016,-0.1015,-0.1078,-0.1146,-0.1281,-0.1425,-0.146,0,0,0,-0.112,-0.1121,-0.1117,-0.1122,-0.1111,-0.1143,-0.11,-0.1095,-0.1078,-0.1041,-0.1056,-0.1097,-0.118,-0.1261,-0.1288,-0.136,-0.1006,-0.1006,-0.1006,-0.1127,-0.1123,-0.1126,-0.1126,-0.1131,-0.1145,-0.1176,-0.1164,-0.1087,-0.1094,-0.1138,-0.1268,-0.1349,-0.1373,-0.1443,-0.1094,-0.1094,-0.1095,-0.1095,-0.1126,-0.1127,-0.1152,-0.1152,-0.1189,-0.1194,-0.1241,-0.123,-0.1295,-0.1186,-0.1264,-0.1309,-0.1407,-0.1471,-0.1099,-0.1098,-0.1098,-0.1097,-0.1097,-0.1116,-0.1122,-0.1129,-0.1167,-0.1225,-0.125,-0.1396,-0.1397,-0.1389,-0.146,-0.1574,-0.1574,-0.1656,-0.1492,-0.1493,-0.1494,-0.1495,-0.1496,-0.1496,-0.1104,-0.1118,-0.1153,-0.1194,-0.1245,-0.1346,-0.1489,-0.1592,-0.171,-0.1706,-0.1707,-0.1717,-0.1391,-0.1405,-0.151,-0.1508,-0.1506,-0.1504,-0.1504,-0.1088,-0.1111,-0.116,-0.1215,-0.1359,-0.1503,-0.166,-0.1936,-0.205,-0.2144,-0.2111,-0.186,-0.1878,-0.1855,-0.188,-0.2103,-0.2103,-0.2103,-0.2103,-0.1093,-0.1103,-0.1194,-0.1295,-0.1448,-0.1585,-0.1908,-0.2151,-0.2348,-0.242,-0.2394,-0.2311,-0.2284,-0.2317,-0.2285,-0.2313,-0.2641,-0.2642,-0.2642,-0.1109,-0.1131,-0.1193,-0.1287,-0.1472,-0.1674,-0.1946,-0.2314,-0.2608,-0.2663,-0.2473,-0.245,-0.2313,-0.2264,-0.2292,-0.2241,-0.2277,0,0]},{"header":{"parameterUnit":"m.s-1","parameterCategory":2,"la1":30.2992,"la2":30.254,"lo1":-89.0895,"lo2":-89.0443,"dy":0.0025,"dx":0.0025,"nx":19,"ny":19,"refTime":"2026-04-08T21:00:00:Z","depth":"0","parameterNumber":3,"parameterNumberName":"V-component_of_CURRENTS"},"data":[0,0,0,-0.0277,-0.0275,-0.0138,-0.0137,0.0031,0.0033,0,0,0,0,0,0,0,0,0,0,0,-0.0336,-0.0336,-0.0277,-0.0274,-0.0138,-0.0137,0.0031,0.0033,0,0,0,0,0,0,0,0,0,0,0,-0.0337,-0.0336,-0.0336,-0.0274,-0.0138,-0.0137,0.0031,-0.0067,0,0,0,0,0,0,0,0,0,0,-0.0197,-0.0249,-0.0336,-0.0336,-0.0273,-0.0138,-0.0137,-0.0071,-0.0061,-0.0037,0,-0.0035,0,0.0001,0.0042,0.0043,0,0,0,-0.0258,-0.0258,-0.023,-0.0336,-0.0272,-0.0139,-0.0195,-0.0065,-0.0053,-0.0023,-0.0032,-0.0025,0.0004,0.0043,0.0044,0.0169,0.0169,0,0,-0.0266,-0.0296,-0.0239,-0.0224,-0.026,-0.0199,-0.0191,-0.0058,-0.0051,-0.0031,-0.0021,0.0007,0.0044,0.0045,0.0169,0.0169,0,0,0,-0.0298,-0.0301,-0.0275,-0.0231,-0.0206,-0.0196,-0.0186,-0.0056,-0.0051,-0.0019,0.0009,0.0045,0.0047,0.0168,0.0169,0.0133,0,0,0,-0.0302,-0.0321,-0.028,-0.0293,-0.021,-0.0126,-0.0188,-0.006,-0.0044,0.0008,0.0045,0.0048,0.0168,0.0169,0.0134,0.0091,0,0,0,-0.0338,-0.0324,-0.0318,-0.0296,-0.0243,-0.0128,-0.0113,-0.0056,-0.0027,0.0043,0.0049,0.0168,0.0168,0.0134,0.0093,0.0082,0,0,0,-0.0359,-0.0348,-0.0319,-0.0285,-0.0245,-0.0153,-0.0113,-0.0033,0.0025,0.0046,0.0168,0.0169,0.0134,0.0094,0.0083,0.0065,0.0059,0,0,-0.0354,-0.0348,-0.0324,-0.0295,-0.0226,-0.0169,-0.0085,-0.0,0.0044,0.0126,0.0129,0.0133,0.0093,0.0082,0.0105,0.0097,0,0,0,-0.0327,-0.0317,-0.0289,-0.0241,-0.0171,-0.0115,-0.002,0.0018,0.0094,0.0079,0.0158,0.0133,0.0127,0.012,0.0114,0.0357,0.0172,0.0172,0.0172,-0.0364,-0.0314,-0.0274,-0.0211,-0.0158,-0.0062,-0.0014,0.0054,0.0104,0.0128,0.0123,0.0112,0.0106,0.0101,0.0354,0.016,0.016,0.0159,0.0159,-0.0359,-0.0334,-0.0279,-0.0228,-0.0169,-0.0105,-0.0008,0.003,0.0089,0.0123,0.0119,0.0106,0.0093,0.0364,0.0157,0.0158,0.0158,0.0158,0.0158,-0.0382,-0.0367,-0.0335,-0.0283,-0.0239,-0.016,-0.0153,-0.006,0.0033,0.004,0.0043,0.0044,0.0264,0.0042,0.0042,0.0042,0.0042,0.0042,0.0042,-0.0429,-0.0393,-0.0407,-0.0347,-0.0351,-0.0329,-0.0243,-0.0204,-0.0093,-0.0012,-0.0011,0.03,0.0076,0.006,0.0038,0.0039,0.0039,0.0039,0.004,-0.0455,-0.0468,-0.0501,-0.0518,-0.0529,-0.0597,-0.0476,-0.0373,-0.0274,-0.0219,0.0249,-0.0024,-0.0019,-0.0013,-0.0031,-0.0075,-0.0075,-0.0075,-0.0075,-0.0509,-0.0503,-0.0614,-0.069,-0.0741,-0.0737,-0.0801,-0.0579,-0.0081,0.0211,0.0343,0.0415,0.0409,0.0445,0.044,0.0435,0.0511,0.0512,0.0513,-0.055,-0.0589,-0.0699,-0.0777,-0.0857,-0.0923,-0.1009,-0.0733,0.0119,0.0566,0.0691,0.0666,0.0805,0.0775,0.0854,0.0828,0.0826,0,0]}],[{"header":{"parameterUnit":"m.s-1","parameterCategory":2,"la1":30.2992,"la2":30.254,"lo1":-89.0895,"lo2":-89.0443,"dy":0.0025,"dx":0.0025,"nx":19,"ny":19,"refTime":"2026-04-08T21:00:00:Z","depth":"2","parameterNumber":2,"parameterNumberName":"U-component_of_CURRENTS"},"data":[0,0,0,-0.1055,-0.1055,-0.1054,-0.1054,-0.098,-0.098,0,0,0,0,0,0,0,0,0,0,0,-0.1045,-0.1045,-0.1055,-0.1055,-0.1054,-0.1054,-0.098,-0.098,0,0,0,0,0,0,0,0,0,0,0,-0.1044,-0.1045,-0.1045,-0.1055,-0.1054,-0.1054,-0.0981,-0.0995,0,0,0,0,0,0,0,0,0,0,-0.1004,-0.1023,-0.1045,-0.1045,-0.1056,-0.1054,-0.1053,-0.0997,-0.0994,-0.0966,0,-0.0971,0,-0.0985,-0.0975,-0.0974,0,0,0,-0.1038,-0.1026,-0.1018,-0.1045,-0.1056,-0.1054,-0.105,-0.0996,-0.0993,-0.0963,-0.0971,-0.0969,-0.0983,-0.0974,-0.0974,-0.092,-0.092,0,0,-0.1039,-0.1048,-0.102,-0.1016,-0.1061,-0.105,-0.105,-0.0995,-0.0997,-0.0971,-0.0968,-0.0982,-0.0974,-0.0973,-0.092,-0.092,0,0,0,-0.105,-0.1048,-0.1042,-0.1018,-0.103,-0.105,-0.105,-0.1,-0.0996,-0.0967,-0.0981,-0.0973,-0.0972,-0.092,-0.092,-0.0995,0,0,0,-0.1049,-0.1056,-0.1043,-0.1048,-0.1032,-0.1029,-0.1056,-0.0999,-0.0994,-0.0982,-0.0973,-0.0972,-0.092,-0.092,-0.0993,-0.1065,0,0,0,-0.1044,-0.1056,-0.1056,-0.1049,-0.1057,-0.103,-0.1024,-0.0999,-0.1003,-0.0974,-0.0971,-0.092,-0.092,-0.0991,-0.1061,-0.1194,0,0,0,-0.1052,-0.1049,-0.1056,-0.1053,-0.1057,-0.1038,-0.1024,-0.1002,-0.0977,-0.0973,-0.092,-0.092,-0.0991,-0.1058,-0.1189,-0.1323,-0.1355,0,0,-0.1048,-0.1049,-0.1043,-0.105,-0.1044,-0.1037,-0.1037,-0.1,-0.0967,-0.093,-0.0929,-0.0994,-0.106,-0.1193,-0.1318,-0.1351,0,0,0,-0.1041,-0.1042,-0.1037,-0.1042,-0.103,-0.1061,-0.1017,-0.1012,-0.0994,-0.0957,-0.0971,-0.1011,-0.1093,-0.1162,-0.1187,-0.092,-0.092,-0.092,-0.092,-0.105,-0.1044,-0.1047,-0.1044,-0.1048,-0.1061,-0.1091,-0.1079,-0.1003,-0.101,-0.1053,-0.1182,-0.1251,-0.1273,-0.101,-0.101,-0.101,-0.1011,-0.1011,-0.1049,-0.1049,-0.1071,-0.107,-0.1105,-0.111,-0.1155,-0.1145,-0.1208,-0.1102,-0.1178,-0.1213,-0.1306,-0.1016,-0.1015,-0.1014,-0.1014,-0.1013,-0.1013,-0.1039,-0.1044,-0.1051,-0.1086,-0.1144,-0.1167,-0.1309,-0.1311,-0.1303,-0.1374,-0.1474,-0.1474,-0.1295,-0.1406,-0.1407,-0.1408,-0.1409,-0.141,-0.141,-0.1028,-0.1041,-0.1076,-0.1114,-0.1165,-0.1264,-0.1403,-0.1504,-0.1612,-0.1604,-0.1605,-0.1318,-0.1305,-0.1319,-0.1424,-0.1421,-0.142,-0.1418,-0.1418,-0.1013,-0.1036,-0.1084,-0.1137,-0.1277,-0.1396,-0.1565,-0.1827,-0.1941,-0.2028,-0.1761,-0.1748,-0.1762,-0.174,-0.1764,-0.1979,-0.1979,-0.198,-0.198,-0.1018,-0.1028,-0.1117,-0.1216,-0.1363,-0.1469,-0.1723,-0.1861,-0.1972,-0.1936,-0.1936,-0.1818,-0.18,-0.1806,-0.1783,-0.1802,-0.2028,-0.2027,-0.2026,-0.1034,-0.1056,-0.1117,-0.1208,-0.1386,-0.1533,-0.167,-0.1735,-0.1849,-0.2011,-0.1765,-0.2018,-0.1841,-0.1813,-0.1813,-0.1779,-0.1806,0,0]},{"header":{"parameterUnit":"m.s-1","parameterCategory":2,"la1":30.2992,"la2":30.254,"lo1":-89.0895,"lo2":-89.0443,"dy":0.0025,"dx":0.0025,"nx":19,"ny":19,"refTime":"2026-04-08T21:00:00:Z","depth":"2","parameterNumber":3,"parameterNumberName":"V-component_of_CURRENTS"},"data":[0,0,0,-0.0249,-0.0247,-0.0112,-0.0112,0.0057,0.0058,0,0,0,0,0,0,0,0,0,0,0,-0.0307,-0.0307,-0.0249,-0.0246,-0.0112,-0.0111,0.0056,0.0058,0,0,0,0,0,0,0,0,0,0,0,-0.0307,-0.0307,-0.0307,-0.0246,-0.0113,-0.0111,0.0056,-0.004,0,0,0,0,0,0,0,0,0,0,-0.0168,-0.0221,-0.0307,-0.0307,-0.0245,-0.0113,-0.0111,-0.0045,-0.0034,-0.0011,0,-0.0009,0,0.0026,0.0067,0.0068,0,0,0,-0.0229,-0.023,-0.0202,-0.0306,-0.0244,-0.0113,-0.0168,-0.0039,-0.0027,0.0003,-0.0006,0.0001,0.0029,0.0068,0.0069,0.0192,0.0192,0,0,-0.0236,-0.0267,-0.021,-0.0195,-0.0234,-0.0172,-0.0164,-0.0031,-0.0025,-0.0006,0.0005,0.0032,0.0069,0.007,0.0191,0.0192,0,0,0,-0.0269,-0.0272,-0.0247,-0.0203,-0.0179,-0.0169,-0.0159,-0.003,-0.0025,0.0007,0.0034,0.007,0.0072,0.0191,0.0192,0.0154,0,0,0,-0.0273,-0.0292,-0.0251,-0.0265,-0.0183,-0.01,-0.0162,-0.0034,-0.0018,0.0033,0.007,0.0073,0.0191,0.0191,0.0155,0.0112,0,0,0,-0.0309,-0.0295,-0.029,-0.0268,-0.0216,-0.0102,-0.0087,-0.003,-0.0002,0.0068,0.0074,0.0191,0.0191,0.0155,0.0114,0.0102,0,0,0,-0.0329,-0.032,-0.0291,-0.0259,-0.0218,-0.0127,-0.0087,-0.0008,0.005,0.0071,0.0191,0.0191,0.0155,0.0115,0.0103,0.0082,0.0075,0,0,-0.0326,-0.032,-0.0297,-0.0268,-0.02,-0.0143,-0.0061,0.0024,0.0068,0.0149,0.0153,0.0154,0.0114,0.0102,0.0119,0.0111,0,0,0,-0.03,-0.0292,-0.0263,-0.0217,-0.0148,-0.0092,0.0002,0.004,0.0115,0.0102,0.0178,0.0154,0.0147,0.0138,0.0132,0.0195,0.0194,0.0194,0.0194,-0.034,-0.029,-0.0252,-0.0189,-0.0137,-0.0042,0.0005,0.0073,0.0124,0.0147,0.0142,0.0129,0.0121,0.0116,0.0178,0.0178,0.0178,0.0178,0.0178,-0.0337,-0.0314,-0.0259,-0.021,-0.0151,-0.0088,0.0009,0.0046,0.0105,0.014,0.0136,0.0122,0.0106,0.0175,0.0176,0.0176,0.0176,0.0177,0.0177,-0.0362,-0.0348,-0.0316,-0.0266,-0.0223,-0.0144,-0.0137,-0.0045,0.0047,0.0054,0.0056,0.0056,0.0082,0.0056,0.0056,0.0056,0.0056,0.0056,0.0055,-0.041,-0.0375,-0.039,-0.0331,-0.0335,-0.0313,-0.0228,-0.0189,-0.0081,-0.0001,-0.0001,0.0088,0.0092,0.0076,0.0052,0.0053,0.0053,0.0053,0.0054,-0.0439,-0.0451,-0.0484,-0.05,-0.0512,-0.0572,-0.0458,-0.0358,-0.0262,-0.0209,-0.0018,-0.0015,-0.001,-0.0004,-0.0021,-0.007,-0.007,-0.007,-0.007,-0.0493,-0.0487,-0.0597,-0.0672,-0.0721,-0.071,-0.0766,-0.0567,-0.0297,-0.0137,-0.0134,-0.0107,-0.0101,-0.0099,-0.009,-0.0108,-0.0179,-0.018,-0.018,-0.0536,-0.0573,-0.0682,-0.0758,-0.0836,-0.0887,-0.0955,-0.0729,-0.0308,-0.0185,-0.0158,-0.0076,-0.0027,-0.002,-0.0006,0.0002,-0.0022,0,0]}],[{"header":{"parameterUnit":"m.s-1","parameterCategory":2,"la1":30.2992,"la2":30.254,"lo1":-89.0895,"lo2":-89.0443,"dy":0.0025,"dx":0.0025,"nx":19,"ny":19,"refTime":"2026-04-08T21:00:00:Z","depth":"4","parameterNumber":2,"parameterNumberName":"U-component_of_CURRENTS"},"data":[0,0,0,-0.0396,-0.0399,-0.0531,-0.0532,-0.0538,-0.0538,0,0,0,0,0,0,0,0,0,0,0,-0.035,-0.0351,-0.0396,-0.0399,-0.0531,-0.0532,-0.0538,-0.0538,0,0,0,0,0,0,0,0,0,0,0,-0.035,-0.0351,-0.0352,-0.04,-0.0531,-0.0532,-0.0539,-0.048,0,0,0,0,0,0,0,0,0,0,-0.0372,-0.0351,-0.035,-0.0352,-0.0401,-0.0531,-0.0532,-0.0478,-0.0483,-0.0432,0,-0.0459,0,-0.0495,-0.0535,-0.0534,0,0,0,-0.0401,-0.0347,-0.0383,-0.0352,-0.0402,-0.0531,-0.0472,-0.0482,-0.0487,-0.0437,-0.046,-0.0461,-0.0495,-0.0534,-0.0534,-0.0511,-0.0512,0,0,-0.0393,-0.0369,-0.0381,-0.0387,-0.0441,-0.0468,-0.0476,-0.0487,-0.0489,-0.046,-0.0462,-0.0495,-0.0534,-0.0534,-0.0511,-0.0511,0,0,0,-0.0372,-0.0363,-0.0403,-0.0385,-0.042,-0.0472,-0.0481,-0.0489,-0.0504,-0.0463,-0.0495,-0.0534,-0.0533,-0.0511,-0.0511,-0.0594,0,0,0,-0.0367,-0.0351,-0.04,-0.0385,-0.0421,-0.0478,-0.0482,-0.0503,-0.0506,-0.0495,-0.0534,-0.0533,-0.0511,-0.0511,-0.0592,-0.0654,0,0,0,-0.0343,-0.0348,-0.0366,-0.0384,-0.0442,-0.048,-0.0496,-0.0506,-0.0524,-0.0534,-0.0532,-0.0511,-0.0511,-0.0589,-0.0649,-0.0764,0,0,0,-0.0309,-0.0357,-0.0366,-0.0424,-0.044,-0.0505,-0.0497,-0.0536,-0.0548,-0.0533,-0.0511,-0.0511,-0.0589,-0.0646,-0.0759,-0.0672,0,0,0,-0.0354,-0.0362,-0.0397,-0.0409,-0.0477,-0.0486,-0.0544,-0.0554,-0.0531,-0.0495,-0.0496,-0.0592,-0.0649,-0.0763,-0.0689,0,0,0,0,-0.0401,-0.0429,-0.045,-0.0493,-0.0525,-0.0572,-0.0571,-0.0576,-0.0589,-0.0541,-0.0575,-0.0608,-0.0678,-0.0611,-0.0513,-0.0513,-0.0513,-0.0513,-0.0513,-0.0397,-0.0439,-0.0495,-0.0545,-0.0579,-0.0618,-0.0666,-0.0665,-0.0606,-0.0625,-0.0662,-0.0787,-0.0714,-0.063,-0.0631,-0.0631,-0.0631,-0.0632,-0.0632,-0.0451,-0.0495,-0.0532,-0.0608,-0.0641,-0.0678,-0.0735,-0.0738,-0.0809,-0.072,-0.0784,-0.0683,-0.064,-0.0638,-0.0637,-0.0636,-0.0635,-0.0635,-0.0634,-0.0461,-0.0491,-0.0533,-0.0615,-0.0691,-0.0736,-0.0863,-0.0892,-0.0901,-0.0969,-0.092,-0.0873,-0.0886,-0.1002,-0.1003,-0.1004,-0.1005,-0.1005,-0.1006,-0.0444,-0.0493,-0.0547,-0.0635,-0.0696,-0.0801,-0.0949,-0.1029,-0.1067,-0.1031,-0.1008,-0.0914,-0.0902,-0.0908,-0.1018,-0.1016,-0.1014,-0.1013,-0.1012,-0.0481,-0.047,-0.0561,-0.0621,-0.0768,-0.0842,-0.1001,-0.113,-0.1236,-0.125,-0.1077,-0.1071,-0.1053,-0.1039,-0.1049,-0.1205,-0.1204,-0.1204,0,-0.0464,-0.0476,-0.0566,-0.0663,-0.078,-0.0873,-0.1016,-0.1123,-0.1159,-0.1103,-0.1208,-0.1005,-0.1,-0.0968,-0.0955,-0.096,0,0,0,-0.0456,-0.0484,-0.0543,-0.0636,-0.0769,-0.0908,-0.1044,-0.1066,-0.1134,-0.1223,-0.1188,-0.1192,-0.1103,-0.1053,-0.1012,-0.0997,-0.1007,0,0]},{"header":{"parameterUnit":"m.s-1","parameterCategory":2,"la1":30.2992,"la2":30.254,"lo1":-89.0895,"lo2":-89.0443,"dy":0.0025,"dx":0.0025,"nx":19,"ny":19,"refTime":"2026-04-08T21:00:00:Z","depth":"4","parameterNumber":3,"parameterNumberName":"V-component_of_CURRENTS"},"data":[0,0,0,0.006,0.006,0.0101,0.0101,0.0209,0.021,0,0,0,0,0,0,0,0,0,0,0,0.0046,0.0046,0.006,0.006,0.0101,0.0101,0.0208,0.021,0,0,0,0,0,0,0,0,0,0,0,0.0046,0.0046,0.0046,0.006,0.0101,0.0101,0.0208,0.0168,0,0,0,0,0,0,0,0,0,0,0.0123,0.0096,0.0046,0.0046,0.006,0.0101,0.0101,0.0165,0.017,0.0201,0,0.0194,0,0.0199,0.0216,0.0217,0,0,0,0.0077,0.0092,0.01,0.0045,0.0061,0.0101,0.0087,0.0168,0.0173,0.0208,0.0196,0.02,0.0201,0.0217,0.0218,0.0294,0.0294,0,0,0.0074,0.0062,0.0095,0.0102,0.0056,0.0086,0.0088,0.0171,0.0173,0.0196,0.0202,0.0202,0.0218,0.0219,0.0294,0.0294,0,0,0,0.0057,0.0061,0.0066,0.0098,0.0098,0.0086,0.0089,0.017,0.017,0.0203,0.0204,0.0218,0.022,0.0294,0.0294,0.0243,0,0,0,0.0056,0.0049,0.0064,0.0059,0.0096,0.0127,0.0087,0.0164,0.0174,0.0203,0.0218,0.0221,0.0294,0.0294,0.0245,0.0201,0,0,0,0.0047,0.0049,0.0047,0.0058,0.0068,0.0125,0.0131,0.0166,0.0174,0.0217,0.0221,0.0294,0.0294,0.0246,0.0204,0.0182,0,0,0,0.0042,0.0019,0.0047,0.0028,0.0067,0.009,0.013,0.0159,0.0191,0.0219,0.0294,0.0294,0.0246,0.0206,0.0184,0.0111,0,0,0,0.0007,0.0015,0.0005,0.003,0.0032,0.0086,0.0107,0.0164,0.0207,0.0274,0.0275,0.0244,0.0204,0.0183,0.0122,0,0,0,0,-0.001,-0.0021,-0.0014,-0.0005,0.0029,0.0063,0.0127,0.0159,0.0214,0.0223,0.0262,0.0238,0.0226,0.019,0.0295,0.0295,0.0295,0.0295,0.0295,-0.0049,-0.0039,-0.0053,-0.0033,-0.0009,0.0058,0.0087,0.0147,0.02,0.0215,0.021,0.0174,0.0137,0.0238,0.0238,0.0238,0.0238,0.0237,0.0237,-0.0104,-0.0125,-0.009,-0.0106,-0.0052,-0.0022,0.0058,0.0095,0.014,0.0185,0.0176,0.0156,0.0233,0.0234,0.0234,0.0235,0.0235,0.0235,0.0236,-0.015,-0.0163,-0.0163,-0.0168,-0.0146,-0.0082,-0.0085,-0.0006,0.0074,0.0073,0.0049,0.0137,0.0125,0.0076,0.0076,0.0075,0.0075,0.0075,0.0075,-0.0204,-0.0206,-0.0239,-0.0235,-0.0243,-0.0233,-0.017,-0.0143,-0.0049,-0.003,0.0054,0.012,0.0125,0.0117,0.007,0.0071,0.0072,0.0072,0.0073,-0.0291,-0.0274,-0.0335,-0.0356,-0.0384,-0.0379,-0.0319,-0.025,-0.0231,-0.0186,-0.0075,-0.0067,-0.0059,-0.005,-0.0064,-0.0166,-0.0167,-0.0168,0,-0.0334,-0.0334,-0.042,-0.0484,-0.053,-0.0479,-0.0478,-0.0413,-0.0286,-0.0295,-0.0227,-0.0106,-0.0098,-0.0092,-0.0085,-0.0104,0,0,0,-0.0378,-0.0396,-0.0478,-0.0539,-0.0603,-0.0542,-0.048,-0.0462,-0.0298,-0.0277,-0.0197,-0.0189,-0.0054,0.0057,0.009,0.0096,0.0084,0,0]}]]